Location: ????
(32.1228°N, 34.8377°E)
Time: 03:36:06
(UTC+00:00)

Cosmos 1980 Rocket - Pass Details

Date: 21 September 2020
Orbit: 831 x 848 km, 71.0° (Epoch: 23 October)

Event Time Altitude Azimuth Distance (km) Brightness Sun altitude
Exits shadow 00:24:03 24° 23° (NNE) 1,699 4.1 -38.2°
Drops below altitude 10° 00:26:08 10° 22° (NNE) 2,466 5.1 -37.8°
Sets 00:28:35 0° 22° (NNE) 3,402 6.0 -37.3°
